TimeCDT,TemperatureF,Dew PointF,Humidity,Sea Level PressureIn,VisibilityMPH,Wind Direction,Wind SpeedMPH,Gust SpeedMPH,PrecipitationIn,Events,Conditions,WindDirDegrees,DateUTC
12:52 AM,69.1,59.0,70,29.77,10.0,SE,15.0,-,N/A,,Clear,140,2012-05-31 05:52:00
1:52 AM,69.1,60.1,73,29.75,10.0,SSE,17.3,23.0,N/A,Thunderstorm,Thunderstorm,150,2012-05-31 06:52:00
2:34 AM,64.4,60.8,88,29.77,1.8,SE,13.8,24.2,0.09,Rain-Thunderstorm,Heavy Thunderstorms and Rain,130,2012-05-31 07:34:00
2:44 AM,62.6,57.2,82,29.78,3.0,NW,9.2,24.2,0.31,Thunderstorm,Unknown,310,2012-05-31 07:44:00
2:52 AM,64.0,59.0,84,29.76,10.0,NNW,13.8,19.6,0.31,Thunderstorm,Thunderstorm,330,2012-05-31 07:52:00
3:10 AM,64.4,62.6,94,29.83,1.8,NW,11.5,21.9,0.07,Thunderstorm,Overcast,310,2012-05-31 08:10:00
3:27 AM,62.6,60.8,94,29.80,1.2,NNE,15.0,-,0.73,Thunderstorm,Overcast,20,2012-05-31 08:27:00
3:34 AM,62.6,60.8,94,29.80,2.0,North,15.0,-,0.84,Thunderstorm,Overcast,10,2012-05-31 08:34:00
3:43 AM,62.6,60.8,94,29.81,5.0,North,11.5,-,0.87,Thunderstorm,Overcast,10,2012-05-31 08:43:00
3:47 AM,62.6,60.8,94,29.81,4.0,NNW,8.1,-,0.89,Thunderstorm,Overcast,340,2012-05-31 08:47:00
3:52 AM,63.0,61.0,93,29.77,3.0,North,11.5,-,0.93,Thunderstorm,Overcast,10,2012-05-31 08:52:00
4:22 AM,62.6,60.8,94,29.79,2.5,NE,6.9,-,0.18,Thunderstorm,Overcast,40,2012-05-31 09:22:00
4:29 AM,62.6,60.8,94,29.79,4.0,ENE,11.5,-,0.20,Thunderstorm,Overcast,60,2012-05-31 09:29:00
4:52 AM,62.1,60.1,93,29.79,4.0,Calm,Calm,-,0.27,Rain,Rain,0,2012-05-31 09:52:00
5:29 AM,62.6,60.8,94,29.76,10.0,East,13.8,-,0.09,Rain,Light Rain,80,2012-05-31 10:29:00
5:52 AM,62.1,60.1,93,29.71,10.0,ENE,12.7,-,0.11,Rain,Light Rain,60,2012-05-31 10:52:00
6:52 AM,63.0,60.1,90,29.72,10.0,SE,8.1,-,0.01,Rain,Light Rain,140,2012-05-31 11:52:00
7:52 AM,64.0,61.0,90,29.77,10.0,West,4.6,-,0.00,,Partly Cloudy,270,2012-05-31 12:52:00
8:11 AM,64.4,60.8,88,29.82,10.0,NW,12.7,16.1,N/A,,Scattered Clouds,310,2012-05-31 13:11:00
8:20 AM,62.6,60.8,94,29.82,10.0,NW,9.2,-,N/A,,Overcast,310,2012-05-31 13:20:00
8:52 AM,63.0,61.0,93,29.82,10.0,WNW,9.2,17.3,N/A,,Overcast,290,2012-05-31 13:52:00
9:42 AM,64.4,60.8,88,29.84,10.0,West,6.9,-,N/A,,Overcast,280,2012-05-31 14:42:00
9:52 AM,66.0,61.0,84,29.81,10.0,West,4.6,-,N/A,,Mostly Cloudy,270,2012-05-31 14:52:00
10:49 AM,69.8,60.8,73,29.84,10.0,NW,13.8,20.7,N/A,,Scattered Clouds,320,2012-05-31 15:49:00
10:52 AM,70.0,59.0,68,29.81,10.0,NNW,16.1,21.9,N/A,,Scattered Clouds,330,2012-05-31 15:52:00
11:52 AM,72.0,57.9,61,29.81,10.0,NNW,19.6,25.3,N/A,,Scattered Clouds,330,2012-05-31 16:52:00
12:16 PM,69.8,57.2,64,29.85,10.0,NW,19.6,26.5,N/A,,Mostly Cloudy,320,2012-05-31 17:16:00
12:31 PM,71.6,57.2,60,29.85,10.0,NNW,18.4,26.5,N/A,,Mostly Cloudy,330,2012-05-31 17:31:00
12:52 PM,70.0,57.9,65,29.83,10.0,NW,26.5,35.7,N/A,,Scattered Clouds,320,2012-05-31 17:52:00
1:15 PM,66.2,57.2,73,29.86,10.0,NW,13.8,25.3,N/A,,Mostly Cloudy,310,2012-05-31 18:15:00
1:25 PM,66.2,57.2,73,29.86,10.0,NW,17.3,24.2,N/A,,Overcast,310,2012-05-31 18:25:00
1:35 PM,64.4,57.2,77,29.87,10.0,NW,19.6,27.6,N/A,,Overcast,320,2012-05-31 18:35:00
1:50 PM,62.6,57.2,82,29.87,10.0,NNW,17.3,26.5,N/A,,Overcast,330,2012-05-31 18:50:00
1:52 PM,63.0,57.0,81,29.85,10.0,NNW,17.3,26.5,N/A,,Overcast,330,2012-05-31 18:52:00
2:25 PM,60.8,55.4,82,29.88,10.0,NW,15.0,23.0,N/A,,Overcast,310,2012-05-31 19:25:00
2:52 PM,60.1,55.0,83,29.87,9.0,NW,11.5,20.7,N/A,,Overcast,320,2012-05-31 19:52:00
3:26 PM,64.4,55.4,73,29.88,10.0,NNW,13.8,23.0,0.00,,Overcast,340,2012-05-31 20:26:00
3:52 PM,64.9,52.0,63,29.86,10.0,NW,16.1,-,0.00,,Overcast,320,2012-05-31 20:52:00
4:52 PM,66.0,52.0,60,29.85,10.0,NW,12.7,21.9,N/A,,Scattered Clouds,310,2012-05-31 21:52:00
5:52 PM,66.0,48.9,54,29.83,10.0,NW,13.8,20.7,N/A,,Partly Cloudy,310,2012-05-31 22:52:00
6:52 PM,64.9,48.0,54,29.84,10.0,NNW,13.8,24.2,N/A,,Mostly Cloudy,330,2012-05-31 23:52:00
7:52 PM,63.0,48.9,60,29.86,10.0,NNW,12.7,-,N/A,,Mostly Cloudy,340,2012-06-01 00:52:00
8:52 PM,60.1,50.0,69,29.89,10.0,NNW,8.1,-,N/A,,Mostly Cloudy,340,2012-06-01 01:52:00
9:52 PM,57.9,48.9,72,29.92,10.0,North,12.7,-,N/A,,Mostly Cloudy,350,2012-06-01 02:52:00
10:52 PM,55.0,48.9,80,29.94,10.0,NW,8.1,-,N/A,,Mostly Cloudy,320,2012-06-01 03:52:00
11:52 PM,54.0,48.9,83,29.94,10.0,NW,8.1,-,N/A,,Scattered Clouds,320,2012-06-01 04:52:00